Regional Weather Roundup
Issued by NWS

Home | Current Version | Previous Version | Text Only | Print | Product List | Glossary Off
Versions: 1 2 3 4 5 6 7 8 9 10 11 12 13 14 15 16 17 18 19 20 21 22 23 24 25 26 27 28 29 30 31 32 33 34 35 36 37 38 39 40 41 42 43 44 45 46 47 48 49 50

521
ASUS43 KMPX 241310
RWRMN
WEATHER ROUNDUP FOR MINNESOTA
NATIONAL WEATHER SERVICE TWIN CITIES/CHANHASSEN MN
800 AM CDT TUE APR 24 2018


NOTE: "FAIR" INDICATES FEW OR NO CLOUDS BELOW 12,000 FEET WITH NO
SIGNIFICANT WEATHER AND/OR OBSTRUCTIONS TO VISIBILITY. N/A MEANS
CURRENT SKY AND/OR WEATHER CONDITIONS ARE NOT AVAILABLE.

MNZ060>063-068>070-241400-
   Twin Cities Metro

CITY           SKY/WX    TMP DP  RH WIND       PRES   REMARKS
TWIN CITIES    FAIR      50  42  74 CALM      30.12S
ST PAUL        FAIR      49  41  74 CALM      30.13S
CRYSTAL        FAIR      49  40  71 NW5       30.12R
BLAINE         MOSUNNY   48  39  71 CALM      30.12R
LAKEVILLE      FAIR      46  43  87 CALM      30.12S
EDEN PRAIRIE   FAIR      48  41  76 CALM      30.12R
SOUTH ST PAUL  FAIR      49  40  70 CALM      30.12S
LAKE ELMO      FAIR      45  37  76 CALM      30.12F
$$
MNZ001>005-007-008-013>017-022>024-027-028-241400-
   Northwest Minnesota

CITY           SKY/WX    TMP DP  RH WIND       PRES   REMARKS
BEMIDJI        LGT RAIN  38  32  77 N8        30.30R
HALLOCK        FAIR      34  28  80 N7        30.39R WCI  28
ROSEAU         FAIR      37  28  70 N12       30.35R
WARROAD        FAIR      36  27  69 NW8       30.34R
THIEF RVR FALL FAIR      41  31  67 N10       30.36R
CROOKSTON      FAIR      41  36  81 N9        30.37R
FOSSTON        FAIR      37  34  87 N10       30.34R
DETROIT LAKES  RAIN      41  36  81 N6        30.32R
MOORHEAD       RAIN      41  37  87 N8        30.36R
PARK RAPIDS    LGT RAIN  43  34  70 N15       30.28R
MAHNOMEN       CLOUDY    39  37  91 N5        30.32R
$$
MNZ006-009>011-018-025>026-241400-
   North Central Minnesota

CITY           SKY/WX    TMP DP  RH WIND       PRES   REMARKS
BAUDETTE       FAIR      37  29  72 NW10      30.31R
FLAG ISLAND    FAIR      34  25  69 NW17      30.32R WCI  23
INTL FALLS     FAIR      40  30  67 NW7       30.27R
WASKISH        PTSUNNY   39  30  70 N8        30.31R
BIG FORK       DRIZZLE   39  30  70 N3        30.27R
LONGVILLE      PTSUNNY   43  30  61 NW7       30.25R
GRAND RAPIDS   CLOUDY    41  29  62 NW9       30.26R
CRANE LAKE     FAIR      32  30  93 CALM      30.28R
ORR            PTSUNNY   36  28  75 CALM      30.23R
COOK           PTSUNNY   39  30  70 CALM      30.25R
WALKER         LGT RAIN  42  33  73 N7        30.28R
$$
MNZ012-019>021-037-241400-
   Northeast Minnesota

CITY           SKY/WX    TMP DP  RH WIND       PRES   REMARKS
DULUTH         FAIR      47  30  51 E13       30.19R
ELY            FAIR      37  28  70 CALM      30.23R
HIBBING        CLOUDY    40  29  64 NW5       30.22R
EVELETH        FAIR      44  29  57 NE5       30.23R
DULUTH HARBOR  FAIR      41  34  75 NE14      30.21R
TWO HARBORS    FAIR      45  34  65 NE3       30.19R
SILVER BAY     FAIR      46  30  53 NE3       30.19R
GRAND MARAIS     N/A     46  28  49 VRB3      30.21R
G MARAIS ARPRT FAIR      39  25  56 N14       30.19R
$$
MNZ029>031-032-039>041-046>048-054>057-064-241400-
   West Central Minnesota

CITY           SKY/WX    TMP DP  RH WIND       PRES   REMARKS
FERGUS FALLS   CLOUDY    43  37  81 N16       30.28R
WHEATON        CLOUDY    45  37  76 N18G30    30.30R
MORRIS         CLOUDY    45  37  76 NW17      30.25R
ALEXANDRIA     CLOUDY    48  32  53 N13       30.25R
ELBOW LAKE     CLOUDY    44  35  71 N17G23    30.27R
WADENA         FAIR      45  32  61 N13       30.27R
GLENWOOD       FAIR      45  34  65 N13       30.22R
APPLETON       CLOUDY    46  39  76 N21G26    30.22R
BENSON         CLOUDY    46  36  66 N13       30.23R
ORTONVILLE     CLOUDY    45  37  76 N26       30.24R
WILLMAR        FAIR      45  37  76 NW8       30.21R
$$
MNZ033>034-036-042>043-049>051-058-059-241400-
   Central Minnesota

CITY           SKY/WX    TMP DP  RH WIND       PRES   REMARKS
ST CLOUD       FAIR      46  35  65 N7        30.17R
SAUK CENTRE    CLOUDY    45  32  61 N12       30.21R
PAYNESVILLE    FAIR      45  36  72 N8        30.18R
AITKIN         PTSUNNY   39  30  70 N3        30.21R
PINE RIVER     CLOUDY    43  30  61 N12       30.28R
BRAINERD       CLOUDY    45  28  51 N13       30.23R
STAPLES        CLOUDY    45  30  57 N13G20    30.25R
LONG PRAIRIE   PTSUNNY   43  32  65 NW13      30.22R
LITTLE FALLS   CLOUDY    45  23  42 N6        30.21R
LITCHFIELD     FAIR      46  37  71 N6        30.16R
BUFFALO        FAIR      48  33  57 N5        30.16R
MAPLE LAKE     FAIR      47  37  70 N7        30.16R
HUTCHINSON     FAIR      49  38  66 N3        30.15R
$$
MNZ037-044-045-052-053-241400-
   East Central Minnesota

CITY           SKY/WX    TMP DP  RH WIND       PRES   REMARKS
PRINCETON      FAIR      50  34  53 N8        30.16R
MORA           FAIR      50  32  50 NE5       30.18R
CAMBRIDGE      FAIR      52  36  54 N8        30.15R
RUSH CITY      FAIR      46  34  64 N6        30.16R
MOOSE LAKE     FAIR      43  30  61 NE3       30.17R
HINCKLEY       FAIR      46  32  57 NE6       30.16R
CLOQUET        FAIR      46  28  49 CALM      30.19R
MCGREGOR       CLOUDY    41  32  70 NW7       30.21R
$$
MNZ071>073-080-081-089-090-097-098-241400-
   Southwest Minnesota

CITY           SKY/WX    TMP DP  RH WIND       PRES   REMARKS
MONTEVIDEO     CLOUDY    45  37  76 N10       30.21R
GRANITE FALLS  MOSUNNY   46  40  79 NW12      30.20R
CANBY          PTSUNNY   47  41  79 NW14      30.23R
MARSHALL       PTSUNNY   44  41  89 NW14      30.20R
REDWOOD FALLS  PTSUNNY   48  42  80 NW9       30.16R
OLIVIA         CLOUDY    46  41  81 W13       30.17R
PIPESTONE      CLOUDY   N/A N/A N/A CALM      30.17R
WINDOM         CLOUDY    45  28  53 NW3       30.16R
WORTHINGTON    CLOUDY    45  40  82 W3        30.17R
JACKSON        SUNNY     43  37  81 CALM      30.15R
TRACY          CLOUDY    46  43  90 NW8       30.17R
SLAYTON        CLOUDY    41  37  87 NW7       30.17S
$$
MNZ065>067-074>077-082>085-091>093-241400-
   South Central Minnesota

CITY           SKY/WX    TMP DP  RH WIND       PRES   REMARKS
MANKATO        FAIR      46  42  86 CALM      30.14R
NEW ULM        SUNNY     45  41  87 W7        30.15R
ST JAMES       SUNNY     45  39  81 W3        30.16R
FAIRMONT       SUNNY     42  38  85 NW3       30.16R
GLENCOE        FAIR      47  40  76 NW5       30.14R
OWATONNA       FAIR      46  43  87 CALM      30.13S
WASECA         FAIR      41  39  93 CALM      30.14S FOG
ALBERT LEA     FAIR      46  41  81 CALM      30.13S
$$
MNZ078>079-086>088-094>096-241400-
   Southeast Minnesota

CITY           SKY/WX    TMP DP  RH WIND       PRES   REMARKS
ROCHESTER      FAIR      49  41  74 NW8       30.13S
RED WING       FAIR      45  34  65 CALM      30.12S
STANTON        FAIR      43  40  89 CALM      30.12S
DODGE CENTER   FAIR      52  41  66 NW5       30.12F
WINONA         FAIR      41  34  75 NW3       30.12S
AUSTIN         FAIR      46  41  81 CALM      30.12F
PRESTON        FAIR      48  38  69 NW3       30.13S
$$
ABBREVIATIONS USED IN REMARKS
   TC - TEMPERATURES IN CELSIUS
  WCI - WIND CHILL INDEX
   HX - HEAT INDEX
  VSB - VISIBILITY
$$




USA.gov is the U.S. government's official web portal to all federal, state and local government web resources and services.